Location: Madrona
(40.9010°N, 4.1749°W)
Time: 23:12:19
(UTC+00:00)

Daily predictions for brighter satellites

Satellite Brightness Start Highest point End
(mag) Time Altitude Azimuth Time Altitude Azimuth Time Altitude Azimuth
Cosmos 2074 Rocket 4.1 18:24:57 10° SSE 18:31:02 56° E 18:37:09 10° NNE
USA 215 4.4 18:25:48 10° ENE 18:31:16 29° NNE 18:36:45 10° NW
Spot 2 4.1 18:29:36 10° SSE 18:33:43 55° ENE 18:37:43 10° N
Cosmos 1378 Rocket 3.6 18:32:54 10° N 18:37:19 64° E 18:41:43 10° SSE
Cosmos 1908 Rocket 3.8 18:33:52 10° SSE 18:38:09 48° E 18:42:28 10° NNE
Atlas Centaur 2 3.9 18:32:38 10° WSW 18:39:58 39° S 18:47:40 10° ESE
HJ-1C 4.3 18:37:55 10° SE 18:40:43 27° ENE 18:43:32 10° NNE
Meteor 2-12 Rocket 4.4 18:37:21 10° S 18:43:27 84° E 18:49:34 10° N
IRAS Rocket 4.3 18:39:52 10° NNE 18:45:32 84° ESE 18:51:07 10° SSW
ARGOS 3.1 18:42:00 10° SSE 18:47:21 79° ENE 18:52:44 10° N
CZ-4C R/B 3.9 18:44:21 10° N 18:47:53 56° WNW 18:51:23 10° SSW
Cosmos 1346 Rocket 3.8 18:46:58 10° NNE 18:50:24 26° ENE 18:53:49 10° SE
YAOGAN 1 2.6 18:47:57 10° SSE 18:52:10 56° ENE 18:56:25 10° N
SJ 16-02 1.9 18:49:47 10° SSE 18:53:49 36° E 18:57:53 10° NE
H-2A R/B 2.9 18:48:59 10° S 18:53:54 54° W 18:58:58 10° NNW
Okean O Rocket 2.6 18:50:20 10° S 18:54:35 52° W 18:58:51 10° NNW
USA 186 3.9 18:55:20 11° ENE 18:55:20 11° ENE 18:55:58 10° NE
Cosmos 1943 Rocket 2.8 18:51:23 10° SW 18:56:51 61° WNW 19:02:26 10° NNE
Cosmos 2082 Rocket 4.2 18:51:59 10° NW 18:56:58 32° WSW 19:01:53 10° SSW
Cosmos 1674 Rocket 4.0 18:53:44 10° NNW 18:58:02 64° W 19:02:17 10° S
DMSP B5D2-2 4.2 18:53:09 10° NNE 18:58:18 51° E 19:03:25 10° S
NOSS 3-2 (A) 4.0 18:54:35 10° SSE 18:59:06 28° ESE 19:04:03 10° NE
Cosmos 1238 Rocket 3.8 18:55:07 10° S 19:01:27 81° E 19:06:59 10° N
ISS -1.2 19:02:49 10° NNW 19:04:33 13° N 19:06:17 10° NNE
CZ-2C R/B 3.4 19:03:39 10° N 19:09:07 60° WNW 19:14:37 10° SSW
IRS-1C Rocket 4.0 19:06:07 10° SSE 19:11:18 68° ENE 19:16:32 10° N
COSMOS 2455 3.4 19:06:50 10° NW 19:12:47 62° WSW 19:18:41 10° SSE
PSLV R/B 4.5 19:11:26 10° NNE 19:15:14 34° E 19:18:58 10° SSE
Geosat 3.9 19:10:18 10° NNE 19:15:20 73° ESE 19:20:20 10° SSW
Cosmos 1295 Rocket 4.4 19:09:09 10° S 19:15:21 74° E 19:21:39 10° N
Cosmos 2369 Rocket 2.2 19:11:09 10° SSW 19:16:49 88° WNW 19:22:30 10° NNE
Okean 2 Rocket 4.3 19:19:52 21° ENE 19:19:52 21° ENE 19:22:35 10° NE
Cosmos 2327 Rocket 4.5 19:16:39 10° S 19:22:53 87° E 19:29:16 10° N
Cosmos 1674 2.5 19:19:35 10° N 19:23:19 89° W 19:27:02 10° S
Cosmos 1777 Rocket 4.1 19:19:06 10° SSW 19:24:21 80° WNW 19:29:36 10° NNE
CSL-04 Debris 4.1 19:20:01 10° SSE 19:25:19 63° ENE 19:30:39 10° N
Lacrosse 5 rocket 1.8 19:21:17 10° NW 19:25:47 67° SW 19:28:53 19° SSE
H-2A R/B 2.5 19:22:43 10° N 19:26:50 60° WNW 19:30:52 10° SSW
Cosmos 1782 Rocket 3.6 19:25:27 10° S 19:29:53 84° W 19:34:20 10° N
H-2A R/B 4.2 19:25:57 10° SSW 19:30:04 37° W 19:34:16 10° NNW
CZ-3B R/B 4.4 19:25:23 10° WNW 19:30:51 22° WSW 19:33:33 10° SSW
Cosmos 1626 2.0 19:27:31 10° N 19:31:13 69° E 19:33:38 20° SSE
Cosmos 1656 Rocket 3.6 19:27:15 10° SSW 19:32:50 86° ESE 19:38:22 10° NNE
Sich 1 Rocket 3.9 19:28:41 10° SSE 19:32:59 44° E 19:37:17 10° NNE
BREEZE-M R/B 4.0 19:30:43 10° WNW 19:34:06 28° N 19:36:13 17° NE
Cosmos 1805 3.1 19:31:02 10° S 19:34:55 90° WNW 19:38:49 10° N
ATLAS CENTAUR R/B 3.1 19:30:46 10° NW 19:35:08 37° WSW 19:39:37 10° S
APEX 4.0 19:31:25 10° N 19:35:36 34° NE 19:35:58 33° ENE
SeaSat 1 3.3 19:36:15 29° E 19:37:21 32° NE 19:41:42 10° N
Cosmos 1315 Rocket 2.6 19:33:52 10° S 19:37:49 77° E 19:41:52 10° NNE
Cosmos 1025 Rocket 3.2 19:35:56 10° N 19:40:08 48° E 19:41:03 40° ESE
CZ-4B R/B 1.5 19:37:17 10° N 19:40:22 66° WNW 19:43:30 10° SSW
SL-14 R/B 3.4 19:36:35 10° N 19:40:25 48° E 19:40:47 46° E
SJ-6B 3.3 19:41:52 42° E 19:42:06 42° ENE 19:45:59 10° N
SL-8 Rocket 4.0 19:37:54 10° SSE 19:43:58 55° E 19:50:07 10° NNE
CZ-4 R/B 3.2 19:43:20 10° SSW 19:46:42 29° W 19:50:06 10° NW
MetOp-A 4.1 19:42:22 10° SSE 19:47:43 84° WSW 19:53:06 10° NNW
Meteor 2-10 4.3 19:45:27 10° SSE 19:50:54 50° E 19:56:12 10° NNE
Cosmos 1733 3.8 19:50:31 10° SSW 19:54:14 57° W 19:58:00 10° N
EO 1 Delta rocket 4.3 19:54:11 43° E 19:54:35 44° ENE 19:59:48 10° N
Cosmos 1339 Rocket 4.4 19:48:51 10° N 19:55:00 66° E 19:58:25 27° SSE
Cosmos 1975 Rocket 3.6 19:55:37 10° NNW 19:59:59 58° W 20:03:55 13° S
SL-27 R/B 4.5 19:57:40 10° N 19:58:44 18° N 19:58:44 18° N
Cosmos 1300 Rocket 3.5 19:57:13 10° S 20:01:37 84° W 20:06:00 10° N
Meteor 1-15 Rocket 4.2 19:56:35 10° SSW 20:02:08 79° W 20:07:46 10° N
Okean-O 3.8 19:58:52 10° S 20:03:02 41° W 20:07:15 10° NNW
Cosmos 1766 3.6 20:01:20 10° SSW 20:05:13 62° W 20:09:06 10° N
Cosmos 1727 Rocket 4.4 20:00:55 10° N 20:06:40 40° ENE 20:06:40 40° ENE
Meteor 1-22 Rocket 4.1 20:03:47 10° S 20:09:18 71° E 20:15:05 10° NNE
CSL-04 Rocket 4.2 20:04:56 11° S 20:10:05 58° W 20:15:27 10° NNW
NOSS 3-2 (C) 3.4 20:04:54 10° SSW 20:09:25 50° SE 20:09:25 50° SE
USA 215 3.2 20:11:36 47° ESE 20:13:35 71° NE 20:20:07 10° NW
Cosmos 990 Rocket 4.0 20:08:40 10° S 20:14:33 59° NE 20:18:56 10° NNE
OBJECT-B 2.5 20:16:13 32° NW 20:16:13 32° NW 20:18:13 10° NNW
CENTAUR R/B 2.2 20:10:45 10° SSW 20:16:23 81° ESE 20:23:11 10° NE
Resurs 01 Rocket 3.5 20:20:48 20° NNE 20:20:48 20° NNE 20:22:22 10° N
Helios 1A Rocket 4.1 20:21:12 33° N 20:21:12 33° N 20:23:35 10° N
Meteor 2-5 Rocket 3.6 20:14:41 10° N 20:20:17 89° E 20:21:29 57° S
Resurs 1-3 4.4 20:21:57 41° N 20:21:57 41° N 20:24:57 10° N
Ariane Rocket 3.5 20:22:34 45° NNE 20:22:34 45° NNE 20:26:27 10° N
CZ-3 Stage 3 3.7 19:54:30 10° WSW 20:22:09 47° S 20:24:26 39° SSE
USA 186 4.3 20:26:49 20° NW 20:26:49 20° NW 20:28:12 10° NNW
BREEZE-M DEB (TANK) 4.3 20:07:37 10° WNW 20:26:58 89° NNE 20:28:33 58° ESE
Cosmos 2366 rocket 3.9 20:22:23 10° S 20:28:32 82° W 20:34:42 10° N
Atlas Centaur 2 3.7 20:21:31 10° WSW 20:29:05 37° S 20:30:32 35° S
SJ 16-02 3.9 20:29:09 10° WSW 20:32:29 21° WNW 20:35:51 10° NNW
Cosmos 1241 Rocket 4.3 20:27:48 10° NNW 20:34:05 76° ENE 20:34:12 75° ENE
USA 238 DEB 3.6 20:34:29 10° SW 20:40:56 79° NW 20:47:47 10° NNE
USA 238 3.6 20:34:36 10° SW 20:41:03 79° NW 20:47:52 10° NNE
Cosmos 2218 Rocket 4.3 20:35:12 10° SSW 20:41:16 64° W 20:47:27 10° N
ISS -0.6 20:39:47 10° NNW 20:40:17 12° NNW 20:40:17 12° NNW
Cosmos 2297 Rocket 4.0 20:38:23 10° N 20:40:51 19° NNE 20:40:51 19° NNE
NOSS 3-2 (A) 4.2 20:44:11 10° WSW 20:49:29 46° NW 20:55:36 10° NNE
Meteor 1-24 Rocket 4.4 20:57:03 10° NNW 21:02:07 47° W 21:02:07 47° W
Cosmos 2227 Rocket 4.2 21:00:58 10° N 21:02:56 18° NNE 21:02:56 18° NNE
SeaSat 1 4.1 21:16:03 30° WNW 21:16:03 30° WNW 21:19:17 10° NW
USA 281 4.4 21:12:40 10° NNE 21:15:50 31° NNE 21:15:50 31° NNE
CENTAUR R/B 4.5 22:03:01 10° W 22:08:00 25° NNW 22:13:43 10° NNE
